AZG3MD UBBB-EBLG

Flight info

Callsign AZG3MD
Flight time N/A
Altitude 32000
Route AGDAM M747 LUSAL M11 REBLO UM11 CRM UL746 ODERO L746 LUGEB DCT VEVIN DCT EKSUN DCT PELUR DCT SIB DCT BUXLE DCT BKS DCT DODAR DCT BALUX DCT TORNO DCT BEGLA DCT DEXIT DCT INBED DCT LOHRE DCT BOMBI DCT IDOVI Z104 GESLO
Aircraft B77L/H-SDE2E3FGHIJ5LORVWXY/LB1D1

Departure

Time N/A
Airport Heydar Aliyev International Airport (UBBB)

Arrival

Time 2026-05-04 13:44
Airport Liège Airport (EBLG)
Time Latitude Longitude Altitude Speed Heading
2026-05-04 11:47 45.77013 24.19337 34141 ft 490 kts 301°
2026-05-04 11:47 45.80175 24.10617 34145 ft 490 kts 301°
2026-05-04 11:48 45.83281 24.01944 34152 ft 487 kts 301°
2026-05-04 11:48 45.86201 23.93770 34152 ft 487 kts 301°
2026-05-04 11:49 45.89285 23.85112 34152 ft 486 kts 301°
2026-05-04 11:49 45.92249 23.76766 34138 ft 486 kts 301°
2026-05-04 11:50 45.95209 23.68404 34134 ft 486 kts 301°
2026-05-04 11:50 45.98267 23.59740 34126 ft 485 kts 301°
2026-05-04 11:51 46.01313 23.51081 34121 ft 484 kts 301°
2026-05-04 11:51 46.04344 23.42438 34122 ft 483 kts 301°
2026-05-04 11:52 46.07371 23.33777 34117 ft 483 kts 301°
2026-05-04 11:52 46.10400 23.25083 34117 ft 483 kts 301°
2026-05-04 11:53 46.13399 23.16446 34122 ft 482 kts 300°
2026-05-04 11:53 46.16402 23.07770 34125 ft 481 kts 300°
2026-05-04 11:55 46.28289 22.73144 34124 ft 479 kts 300°
2026-05-04 11:56 46.31229 22.64507 34121 ft 479 kts 300°
2026-05-04 11:56 46.34174 22.55831 34128 ft 478 kts 300°
2026-05-04 11:57 46.37111 22.47149 34127 ft 478 kts 300°
2026-05-04 11:57 46.40030 22.38487 34129 ft 477 kts 300°
2026-05-04 11:58 46.42943 22.29820 34127 ft 477 kts 300°
2026-05-04 11:58 46.45843 22.21159 34126 ft 477 kts 299°
2026-05-04 11:59 46.48624 22.12372 34124 ft 477 kts 297°
2026-05-04 11:59 46.51302 22.03525 34126 ft 477 kts 297°
2026-05-04 12:00 46.53975 21.94695 34128 ft 475 kts 297°
2026-05-04 12:00 46.56632 21.85902 34126 ft 476 kts 297°
2026-05-04 12:01 46.59278 21.77124 34121 ft 475 kts 297°
2026-05-04 12:02 46.68520 21.46256 34134 ft 472 kts 297°
2026-05-04 12:03 46.71136 21.37451 34138 ft 473 kts 297°
2026-05-04 12:03 46.73738 21.28661 34137 ft 473 kts 296°
2026-05-04 12:04 46.76363 21.19766 34363 ft 483 kts 296°
2026-05-04 12:04 46.77690 21.15252 35049 ft 479 kts 296°
2026-05-04 12:04 46.78993 21.10813 35781 ft 474 kts 296°
2026-05-04 12:05 46.80278 21.06428 36092 ft 475 kts 296°
2026-05-04 12:05 46.81531 21.01948 36138 ft 474 kts 295°
2026-05-04 12:05 46.83973 20.93042 36141 ft 470 kts 295°
2026-05-04 12:06 46.86405 20.84164 36142 ft 471 kts 295°
2026-05-04 12:06 46.88670 20.75876 36141 ft 470 kts 295°
2026-05-04 12:07 46.91088 20.67000 36133 ft 470 kts 295°
2026-05-04 12:07 46.93509 20.58087 36134 ft 469 kts 295°
2026-05-04 12:08 46.95904 20.49236 36137 ft 469 kts 295°
2026-05-04 12:08 46.98309 20.40316 36134 ft 469 kts 295°
2026-05-04 12:09 47.00687 20.31468 36140 ft 469 kts 294°
2026-05-04 12:09 47.03080 20.22524 36136 ft 469 kts 294°
2026-05-04 12:10 47.05448 20.13643 36139 ft 469 kts 294°
2026-05-04 12:10 47.07830 20.04677 36140 ft 468 kts 294°
2026-05-04 12:11 47.10184 19.95778 36136 ft 468 kts 294°
2026-05-04 12:11 47.12529 19.86884 36143 ft 468 kts 294°
2026-05-04 12:12 47.14864 19.77992 36139 ft 468 kts 294°
2026-05-04 12:12 47.17173 19.69166 36134 ft 467 kts 294°
2026-05-04 12:14 47.27322 19.34161 36124 ft 465 kts 297°
2026-05-04 12:15 47.30077 19.25549 36130 ft 465 kts 297°
2026-05-04 12:15 47.32806 19.16954 36130 ft 465 kts 297°
2026-05-04 12:16 47.35538 19.08301 36130 ft 465 kts 297°
2026-05-04 12:16 47.38262 18.99633 36133 ft 465 kts 297°
2026-05-04 12:17 47.40957 18.91022 36128 ft 465 kts 296°
2026-05-04 12:17 47.43673 18.82312 36123 ft 465 kts 296°
2026-05-04 12:18 47.46361 18.73661 36120 ft 465 kts 296°
2026-05-04 12:18 47.49056 18.64958 36110 ft 464 kts 296°
2026-05-04 12:19 47.51727 18.56300 36111 ft 464 kts 296°
2026-05-04 12:19 47.54281 18.47531 36108 ft 464 kts 290°
2026-05-04 12:20 47.56278 18.38460 36109 ft 464 kts 290°
2026-05-04 12:20 47.58255 18.29347 36108 ft 465 kts 289°
2026-05-04 12:21 47.60213 18.20289 36105 ft 464 kts 289°
2026-05-04 12:21 47.62182 18.11138 36105 ft 464 kts 289°
2026-05-04 12:22 47.64133 18.02035 36102 ft 464 kts 289°
2026-05-04 12:22 47.66072 17.92952 36106 ft 464 kts 289°
2026-05-04 12:23 47.68003 17.83861 36105 ft 463 kts 289°
2026-05-04 12:23 47.69933 17.74736 36099 ft 464 kts 289°
2026-05-04 12:24 47.71852 17.65625 36098 ft 463 kts 288°
2026-05-04 12:24 47.73758 17.56529 36097 ft 463 kts 288°
2026-05-04 12:25 47.75655 17.47441 36089 ft 463 kts 288°
2026-05-04 12:25 47.77557 17.38285 36083 ft 462 kts 288°
2026-05-04 12:26 47.79417 17.29293 36090 ft 462 kts 288°
2026-05-04 12:26 47.81307 17.20112 36082 ft 462 kts 288°
2026-05-04 12:27 47.83230 17.10984 36078 ft 461 kts 292°
2026-05-04 12:27 47.85749 17.02253 36077 ft 460 kts 294°
2026-05-04 12:28 47.88325 16.93477 36080 ft 461 kts 294°
2026-05-04 12:28 47.90869 16.84761 36077 ft 460 kts 294°
2026-05-04 12:29 47.93393 16.76068 36066 ft 461 kts 294°
2026-05-04 12:29 47.95922 16.67322 36065 ft 460 kts 294°
2026-05-04 12:30 47.98450 16.58540 36062 ft 460 kts 294°
2026-05-04 12:30 48.00941 16.49860 36055 ft 459 kts 294°
2026-05-04 12:31 48.03464 16.41033 36054 ft 460 kts 293°
2026-05-04 12:31 48.05966 16.32246 36050 ft 459 kts 292°
2026-05-04 12:32 48.09714 16.19023 36041 ft 459 kts 292°
2026-05-04 12:33 48.12179 16.10287 36043 ft 459 kts 292°
2026-05-04 12:33 48.14662 16.01454 36040 ft 459 kts 292°
2026-05-04 12:34 48.17118 15.92685 36038 ft 459 kts 292°
2026-05-04 12:34 48.19578 15.83869 36035 ft 458 kts 292°
2026-05-04 12:35 48.22035 15.75034 36032 ft 458 kts 292°
2026-05-04 12:35 48.24466 15.66258 36027 ft 458 kts 292°
2026-05-04 12:36 48.26897 15.57448 36035 ft 459 kts 292°
2026-05-04 12:36 48.29299 15.48711 36038 ft 457 kts 292°
2026-05-04 12:37 48.31700 15.39947 36036 ft 458 kts 292°
2026-05-04 12:37 48.34029 15.31412 36035 ft 458 kts 291°
2026-05-04 12:38 48.36422 15.22613 36039 ft 457 kts 291°
2026-05-04 12:38 48.38777 15.13920 36037 ft 458 kts 291°
2026-05-04 12:39 48.41138 15.05171 36042 ft 457 kts 291°
2026-05-04 12:39 48.43520 14.96313 36041 ft 457 kts 291°
2026-05-04 12:40 48.45868 14.87548 36041 ft 456 kts 291°
2026-05-04 12:40 48.48237 14.78673 36040 ft 457 kts 291°
2026-05-04 12:41 48.50520 14.70086 36039 ft 456 kts 291°
2026-05-04 12:41 48.52873 14.61200 36034 ft 456 kts 291°
2026-05-04 12:42 48.55222 14.52299 36029 ft 457 kts 291°
2026-05-04 12:42 48.57542 14.43471 36022 ft 456 kts 291°
2026-05-04 12:43 48.59855 14.34636 36028 ft 456 kts 290°
2026-05-04 12:43 48.62183 14.25712 36027 ft 456 kts 290°
2026-05-04 12:44 48.64499 14.16797 36030 ft 456 kts 290°
2026-05-04 12:44 48.66806 14.07882 36026 ft 456 kts 290°
2026-05-04 12:45 48.69107 13.98958 36027 ft 454 kts 290°
2026-05-04 12:45 48.71408 13.89995 36027 ft 455 kts 290°
2026-05-04 12:46 48.73695 13.81058 36026 ft 454 kts 290°
2026-05-04 12:46 48.75954 13.72191 36027 ft 454 kts 290°
2026-05-04 12:47 48.78142 13.63238 36025 ft 454 kts 289°
2026-05-04 12:47 48.80277 13.54278 36027 ft 452 kts 289°
2026-05-04 12:48 48.82393 13.45378 36023 ft 453 kts 289°
2026-05-04 12:48 48.84516 13.36423 36022 ft 452 kts 289°
2026-05-04 12:49 48.86641 13.27430 36028 ft 452 kts 288°
2026-05-04 12:49 48.88728 13.18562 36025 ft 451 kts 288°
2026-05-04 12:50 48.90794 13.09748 36027 ft 450 kts 288°
2026-05-04 12:50 48.92883 13.00800 36025 ft 451 kts 288°
2026-05-04 12:51 48.94940 12.91955 36024 ft 450 kts 288°
2026-05-04 12:51 48.97009 12.83019 36026 ft 451 kts 288°
2026-05-04 12:52 48.99047 12.74184 36022 ft 449 kts 288°
2026-05-04 12:52 49.01040 12.65507 36021 ft 451 kts 288°
2026-05-04 12:53 49.03093 12.56528 36020 ft 450 kts 288°
2026-05-04 12:53 49.05108 12.47684 36019 ft 449 kts 288°
2026-05-04 12:54 49.07143 12.38711 36015 ft 451 kts 288°
2026-05-04 12:54 49.09159 12.29785 36018 ft 449 kts 287°
2026-05-04 12:55 49.11138 12.20986 36014 ft 450 kts 287°
2026-05-04 12:55 49.13032 12.12527 36015 ft 451 kts 287°
2026-05-04 12:56 49.14999 12.03712 36017 ft 450 kts 287°
2026-05-04 12:56 49.16918 11.95074 36023 ft 451 kts 287°
2026-05-04 12:57 49.18897 11.86127 36028 ft 451 kts 287°
2026-05-04 12:57 49.20858 11.77224 36029 ft 450 kts 287°
2026-05-04 12:58 49.22836 11.68207 36024 ft 451 kts 287°
2026-05-04 12:58 49.24794 11.59236 36020 ft 451 kts 286°
2026-05-04 12:59 49.26780 11.50104 36016 ft 452 kts 286°
2026-05-04 12:59 49.28739 11.41051 36013 ft 452 kts 286°
2026-05-04 13:00 49.30686 11.32018 36015 ft 452 kts 285°
2026-05-04 13:00 49.32620 11.23002 36019 ft 453 kts 285°
2026-05-04 13:01 49.34433 11.14518 36015 ft 453 kts 285°
2026-05-04 13:01 49.36356 11.05476 36022 ft 452 kts 285°
2026-05-04 13:02 49.38348 10.96390 36016 ft 454 kts 290°
2026-05-04 13:02 49.41459 10.88167 36027 ft 461 kts 303°
2026-05-04 13:03 49.45184 10.80516 36025 ft 461 kts 303°
2026-05-04 13:03 49.48864 10.72891 36022 ft 461 kts 303°
2026-05-04 13:04 49.52680 10.64917 36020 ft 461 kts 303°
2026-05-04 13:04 49.56432 10.57024 36017 ft 461 kts 303°
2026-05-04 13:05 49.60228 10.49005 36018 ft 461 kts 303°
2026-05-04 13:05 49.63963 10.41083 36014 ft 462 kts 303°
2026-05-04 13:06 49.67721 10.33083 36012 ft 462 kts 302°
2026-05-04 13:06 49.71487 10.25040 36009 ft 462 kts 302°
2026-05-04 13:07 49.75248 10.16985 36008 ft 462 kts 302°
2026-05-04 13:07 49.78957 10.09014 36007 ft 463 kts 302°
2026-05-04 13:08 49.82704 10.00939 36007 ft 462 kts 302°
2026-05-04 13:08 49.86419 9.92906 36005 ft 462 kts 302°
2026-05-04 13:09 49.90140 9.84838 36002 ft 463 kts 302°
2026-05-04 13:09 49.93873 9.76718 36003 ft 462 kts 302°
2026-05-04 13:10 49.97602 9.68581 36004 ft 463 kts 302°
2026-05-04 13:10 50.01329 9.60425 36006 ft 463 kts 302°
2026-05-04 13:11 50.04600 9.51981 35998 ft 457 kts 289°
2026-05-04 13:11 50.06253 9.42516 36004 ft 450 kts 274°
2026-05-04 13:12 50.06399 9.32930 36001 ft 447 kts 266°
2026-05-04 13:12 50.06315 9.23536 36004 ft 447 kts 266°
2026-05-04 13:13 50.06199 9.13957 36006 ft 447 kts 266°
2026-05-04 13:13 50.06064 9.04363 35996 ft 446 kts 266°
2026-05-04 13:14 50.05916 8.94857 35999 ft 447 kts 266°
2026-05-04 13:14 50.05754 8.85209 36002 ft 448 kts 266°
2026-05-04 13:15 50.05669 8.75644 36007 ft 448 kts 269°
2026-05-04 13:15 50.05896 8.66027 36003 ft 448 kts 269°
2026-05-04 13:16 50.06103 8.56455 36002 ft 449 kts 269°
2026-05-04 13:16 50.06291 8.46860 36004 ft 448 kts 269°
2026-05-04 13:17 50.06464 8.37254 36002 ft 449 kts 269°
2026-05-04 13:17 50.06628 8.27569 36002 ft 448 kts 268°
2026-05-04 13:18 50.06780 8.18034 35998 ft 448 kts 268°
2026-05-04 13:18 50.06926 8.08349 35994 ft 449 kts 268°
2026-05-04 13:19 50.07061 7.98791 35990 ft 449 kts 268°
2026-05-04 13:19 50.07190 7.89065 35987 ft 449 kts 268°
2026-05-04 13:20 50.07309 7.79507 35984 ft 449 kts 268°
2026-05-04 13:20 50.07421 7.69809 35983 ft 450 kts 268°
2026-05-04 13:21 50.07526 7.60075 35981 ft 448 kts 268°
2026-05-04 13:21 50.07623 7.50399 35994 ft 450 kts 268°
2026-05-04 13:22 50.07709 7.40835 35990 ft 449 kts 268°
2026-05-04 13:22 50.07790 7.31134 35999 ft 450 kts 267°
2026-05-04 13:23 50.08068 7.21449 35999 ft 451 kts 270°
2026-05-04 13:23 50.08424 7.13743 35988 ft 451 kts 270°
2026-05-04 13:24 50.08892 7.03067 35995 ft 451 kts 270°
2026-05-04 13:24 50.09299 6.93375 35996 ft 451 kts 270°
2026-05-04 13:25 50.09455 6.83860 35673 ft 443 kts 265°
2026-05-04 13:25 50.09359 6.79072 35045 ft 443 kts 264°
2026-05-04 13:25 50.09257 6.74296 34307 ft 446 kts 265°
2026-05-04 13:25 50.09157 6.69503 33535 ft 447 kts 265°
2026-05-04 13:26 50.09055 6.64636 32776 ft 447 kts 265°
2026-05-04 13:26 50.08955 6.59899 32016 ft 448 kts 265°
2026-05-04 13:26 50.08850 6.55047 31239 ft 449 kts 265°
2026-05-04 13:26 50.08744 6.50265 30600 ft 446 kts 265°
2026-05-04 13:27 50.08640 6.45524 30176 ft 439 kts 265°
2026-05-04 13:27 50.08534 6.40825 29732 ft 432 kts 265°
2026-05-04 13:27 50.08427 6.36250 29275 ft 428 kts 265°
2026-05-04 13:27 50.08315 6.31662 28810 ft 442 kts 264°
2026-05-04 13:28 50.08200 6.26966 28312 ft 442 kts 264°
2026-05-04 13:28 50.08084 6.22262 27818 ft 437 kts 264°
2026-05-04 13:28 50.07970 6.17594 27321 ft 432 kts 264°
2026-05-04 13:28 50.07859 6.13034 26837 ft 430 kts 264°
2026-05-04 13:29 50.07820 6.08399 26322 ft 428 kts 269°
2026-05-04 13:29 50.08214 6.03799 25714 ft 430 kts 278°
2026-05-04 13:29 50.09063 5.99424 25069 ft 433 kts 287°
2026-05-04 13:29 50.10391 5.95209 24405 ft 437 kts 296°
2026-05-04 13:30 50.12153 5.91367 23701 ft 442 kts 306°
2026-05-04 13:30 50.14328 5.88012 23125 ft 434 kts 316°
2026-05-04 13:30 50.16720 5.85412 22728 ft 422 kts 327°
2026-05-04 13:30 50.19342 5.83489 22360 ft 409 kts 337°
2026-05-04 13:31 50.22057 5.82364 21862 ft 405 kts 348°
2026-05-04 13:31 50.24777 5.82026 21365 ft 407 kts 359°
2026-05-04 13:31 50.27581 5.82416 20834 ft 407 kts
2026-05-04 13:31 50.30341 5.82708 20396 ft 402 kts 358°
2026-05-04 13:32 50.33115 5.82543 19997 ft 396 kts 352°
2026-05-04 13:32 50.35820 5.81995 19626 ft 389 kts 348°
2026-05-04 13:32 50.38431 5.81199 19176 ft 385 kts 345°
2026-05-04 13:32 50.40936 5.80235 18733 ft 382 kts 343°
2026-05-04 13:33 50.43424 5.79143 18466 ft 373 kts 341°
2026-05-04 13:33 50.45857 5.77984 18432 ft 358 kts 340°
2026-05-04 13:33 50.48182 5.76836 18395 ft 344 kts 339°
2026-05-04 13:33 50.50386 5.75695 18166 ft 337 kts 338°
2026-05-04 13:34 50.52583 5.74492 17786 ft 335 kts 338°
2026-05-04 13:34 50.54722 5.73132 17356 ft 332 kts 330°
2026-05-04 13:34 50.56677 5.71260 16975 ft 327 kts 320°
2026-05-04 13:34 50.58392 5.68912 16580 ft 322 kts 310°
2026-05-04 13:35 50.59784 5.66243 16211 ft 317 kts 301°
2026-05-04 13:35 50.61708 5.60283 15458 ft 310 kts 290°
2026-05-04 13:35 50.62555 5.57169 15081 ft 308 kts 291°
2026-05-04 13:36 50.63405 5.54114 14707 ft 307 kts 291°
2026-05-04 13:36 50.64244 5.51138 14355 ft 305 kts 292°
2026-05-04 13:36 50.65429 5.48333 13918 ft 310 kts 315°
2026-05-04 13:36 50.67220 5.46518 13511 ft 313 kts 336°
2026-05-04 13:37 50.69186 5.45483 13217 ft 311 kts 342°
2026-05-04 13:37 50.71217 5.44615 12880 ft 309 kts 343°
2026-05-04 13:37 50.73236 5.43783 12518 ft 308 kts 343°
2026-05-04 13:37 50.74573 5.43231 12304 ft 306 kts 343°
2026-05-04 13:38 50.77160 5.42790 12234 ft 292 kts
2026-05-04 13:38 50.79018 5.43842 12068 ft 285 kts 31°
2026-05-04 13:38 50.80570 5.45643 12029 ft 272 kts 41°
2026-05-04 13:38 50.81902 5.47640 11695 ft 273 kts 52°
2026-05-04 13:39 50.82700 5.50255 11070 ft 273 kts 79°
2026-05-04 13:39 50.82664 5.53200 10225 ft 273 kts 108°
2026-05-04 13:39 50.81785 5.55735 9392 ft 269 kts 135°
2026-05-04 13:39 50.80457 5.57692 8590 ft 276 kts 141°
2026-05-04 13:40 50.79033 5.59691 7721 ft 286 kts 144°
2026-05-04 13:40 50.77328 5.60978 6846 ft 272 kts 171°
2026-05-04 13:40 50.75507 5.60998 6016 ft 263 kts 194°
2026-05-04 13:40 50.73914 5.59973 5218 ft 257 kts 213°
2026-05-04 13:41 50.72554 5.58313 4380 ft 254 kts 222°
2026-05-04 13:41 50.71304 5.56456 3490 ft 253 kts 225°
2026-05-04 13:41 50.70088 5.54534 2584 ft 253 kts 225°
2026-05-04 13:42 50.67745 5.50767 1325 ft 229 kts 225°
2026-05-04 13:42 50.66708 5.49124 1202 ft 203 kts 225°
2026-05-04 13:42 50.65745 5.47606 872 ft 189 kts 225°
2026-05-04 13:42 50.64887 5.46235 629 ft 166 kts 223°
2026-05-04 13:43 50.64183 5.45137 604 ft 117 kts 225°
2026-05-04 13:43 50.63840 5.44585 611 ft 55 kts 226°
2026-05-04 13:43 50.63579 5.44172 621 ft 59 kts 225°
2026-05-04 13:43 50.63262 5.43669 635 ft 59 kts 227°
2026-05-04 13:44 50.63039 5.43305 644 ft 33 kts 226°
2026-05-04 13:44 50.62946 5.43098 646 ft 19 kts 270°
2026-05-04 13:44 50.63026 5.42965 643 ft 13 kts 341°
2026-05-04 13:44 50.63079 5.42945 642 ft 8 kts 349°
2026-05-04 13:45 50.63148 5.42916 641 ft 14 kts 341°
2026-05-04 13:45 50.63181 5.42894 640 ft 16 kts 333°
2026-05-04 13:45 50.63191 5.42886 639 ft 17 kts 332°
2026-05-04 13:45 50.63287 5.42762 636 ft 18 kts 315°
2026-05-04 13:46 50.63347 5.42704 634 ft 9 kts
2026-05-04 13:46 50.63390 5.42768 634 ft 8 kts 62°
2026-05-04 13:46 50.63420 5.42839 635 ft 7 kts 30°
2026-05-04 13:46 50.63471 5.42833 633 ft 8 kts 344°
2026-05-04 13:47 50.63501 5.42819 633 ft 2 kts 342°
2026-05-04 13:47 50.63505 5.42816 633 ft 0 kts 342°